Regional Weather Roundup
Issued by NWS Cleveland, OH

Home | Current Version | Previous Version | Graphics & Text | Print | Product List | Glossary On
Versions: 1 2 3 4 5 6 7 8 9 10 11 12 13 14 15 16 17 18 19 20 21 22 23 24 25 26 27 28 29 30 31 32 33 34 35 36 37 38 39 40 41 42 43 44 45 46 47 48 49 50
000
ASUS41 KCLE 260602
RWRCLE
OHIO REGIONAL WEATHER ROUNDUP
NATIONAL WEATHER SERVICE CLEVELAND, OH
200 AM EDT THU APR 26 2018

NOTE: "FAIR" INDICATES FEW OR NO CLOUDS BELOW 12,000 FEET WITH NO
SIGNIFICANT WEATHER AND/OR OBSTRUCTIONS TO VISIBILITY.

OHZ001>008-015>018-024>027-034-035-043-044-260700-
   NORTHWEST OHIO

CITY           SKY/WX    TMP DP  RH WIND       PRES   REMARKS
DEFIANCE       FAIR      42  39  89 E6        29.94S
FINDLAY        FAIR      44  37  76 E9        29.93F
TOLEDO EXPRESS MOCLDY    44  42  93 E5        29.94F
TOLEDO EXEC    CLOUDY    43  40  89 E6        29.96F
LIMA           FAIR      42  40  92 E6        29.92F
$$

OHZ009>014-019>023-028>033-038-089-260700-
   NORTHEAST OHIO

CITY           SKY/WX    TMP DP  RH WIND       PRES   REMARKS
CLE-HOPKINS    FAIR      38  34  85 CALM      29.96F
CLE-LAKEFRONT  MOCLDY    40  34  79 N3        29.93F
CUY CO. ARPT   NOT AVBL
LORAIN-ELYRIA  FAIR      37  31  78 MISG      29.95F
ASHTABULA      FAIR      35  34  96 NW5       29.90F
AKRON-CANTON   CLOUDY    39  34  82 NW7       29.92S
WOOSTER        MOCLDY    39  36  89 N5        29.93F
MANSFIELD      FAIR      39  38  96 CALM      29.93S
YOUNGSTOWN     CLOUDY    38  34  85 NW10      29.90S
$$

OHZ042-051>053-060>062-070>072-077>081-260700-
  SOUTHWEST OHIO

CITY           SKY/WX    TMP DP  RH WIND       PRES   REMARKS
CINC-COVINGTON CLOUDY    49  35  58 N9        29.93S
CINC-LUNKEN    FAIR      50  38  63 N7        29.94S
HAMILTON       FAIR      49  35  58 NW5       29.95S
DAYTON         FAIR      43  35  73 NW8       29.92F
WRIGHT-PAT AFB FAIR      46  34  63 W5        29.92F
DAYTON GENERAL FAIR      48  33  56 N9        29.91F
WILMINGTON     FAIR      50  38  63 NW7       29.91F
$$

OHZ036-037-039>041-045>050-054>059-063>069-073>076-082>088-260700-
  CENTRAL AND SOUTHEAST OHIO

CITY           SKY/WX    TMP DP  RH WIND       PRES   REMARKS
COLUMBUS       FAIR      47  43  86 E5        29.90S
OSU AIRPORT    FAIR      44  42  93 E6        29.90F
BOLTON FIELD   FAIR      44  41  88 NE3       29.91R
RICKENBACK AFB NOT AVBL
NEWARK         FAIR      45  42  89 CALM      29.91S
MARION         FAIR      39  37  92 NE7       29.93F
LANCASTER      FAIR      41  40  96 CALM      29.91S
ZANESVILLE     MOCLDY    43  40  89 CALM      29.91S
NEW PHILLY     NOT AVBL
$$




USA.gov is the U.S. government's official web portal to all federal, state and local government web resources and services.